Regional Weather Roundup
Issued by NWS Bismarck, ND

Home | Current Version | Previous Version | Text Only | Print | Product List | Glossary On
Versions: 1 2 3 4 5 6 7 8 9 10 11 12 13 14 15 16 17 18 19 20 21 22 23 24 25 26 27 28 29 30 31 32 33 34 35 36 37 38 39 40 41 42 43 44 45 46 47 48 49 50
000
ASUS43 KBIS 151310
RWRBIS

NWR BROADCAST TEXT
NATIONAL WEATHER SERVICE BISMARCK ND
700 AM CST SUN JAN 15 2017

NOTE: "FAIR" INDICATES FEW OR NO CLOUDS BELOW 12,000 FEET WITH NO
SIGNIFICANT WEATHER AND/OR OBSTRUCTIONS TO VISIBILITY.


CITY           SKY/WX    TMP DP  RH WIND       PRES   REMARKS
WILLISTON      FAIR       1  -3  83 S3        30.09F
MINOT          FAIR      12   3  67 SW18      30.04F WCI  -6
MINOT AFB      FAIR      10   1  68 W17       30.04F WCI  -8
BISMARCK       FAIR      -9 -15  75 CALM      30.18F
DICKINSON      FAIR      12   1  61 SW13      30.08S WCI  -3
GARRISON         N/A     -3  -7  82 CALM      30.09F
HETTINGER ARPT FAIR       0  -5  79 CALM      30.14F
JAMESTOWN      FAIR       2  -2  83 SW5       30.13F WCI  -8
CARRINGTON     FAIR      14   5  67 SW13G20   30.11F WCI   0
HAZEN            N/A    N/A N/A N/A SW8       30.13F
RUGBY            N/A      0  -4  85 SW9       30.06F WCI -16
STANLEY        FAIR       9   1  72 SW10      30.06F WCI  -6
TIOGA          FAIR       5   0  78 SW8       30.06F WCI  -8
WATFORD CITY   FAIR       3  -2  78 SW3       30.09S
$$

CITY           SKY/WX    TMP DP  RH WIND       PRES   REMARKS
GRAND FORKS    FAIR       1  -6  72 S13       30.14F WCI -17
GRAND FORKS AF FAIR       0  -6  75 SW8       30.13F WCI -14
DEVILS LAKE    FAIR       4  -1  80 SW9       30.08F WCI -10
FARGO          FAIR       9   2  73 S16       30.21F WCI  -8
CAVALIER         N/A      5   0  78 S10       30.07S WCI -10
GRAFTON        FAIR       0  -6  78 S14       30.12F WCI -19
GWINNER        FAIR      12   9  85 SW17      30.21F WCI  -5
ROLLA            N/A    N/A N/A N/A MISG        N/A
$$

CITY           SKY/WX    TMP DP  RH WIND       PRES   REMARKS
ABERDEEN       FAIR      -6 -11  79 SW5       30.25F WCI -17
MOBRIDGE       FAIR      -4 -10  75 SE5       30.17F WCI -15
BUFFALO          N/A     20   9  62 CALM      30.05S
RAPID CITY     FAIR      15   0  51 W8        30.12F WCI   4
GLASGOW        FAIR      -6  -8  91 S9        30.06S WCI -23
SIDNEY         FAIR       1  -4  79 S6        30.11F WCI -10
WOLF POINT     FAIR     -11 -18  71 W6        30.10F WCI -25
GLENDIVE       FAIR       2  -3  80 S14       30.10F WCI -16
MILES CITY     FAIR       0  -7  72 SE18      30.12F WCI -21
BAKER          FAIR      -5 -11  75 CALM      30.11F
$$

CITY           SKY/WX    TMP DP  RH WIND       PRES   REMARKS
BILLINGS       FAIR      17   3  54 SW25      30.10F WCI  -1
GREAT FALLS    FAIR      26   9  48 SW26      30.04F WCI  10
REGINA         MOCLDY     5   0  78 SE9       29.95S WCI  -9
ESTEVAN        PTCLDY     3  -2  78 SW17      30.00F WCI -17
$$





USA.gov is the U.S. government's official web portal to all federal, state and local government web resources and services.